Regional Weather Roundup
Issued by NWS

Home | Current Version | Previous Version | Graphics & Text | Print | Product List | Glossary Off
Versions: 1 2 3 4 5 6 7 8 9 10 11 12 13 14 15 16 17 18 19 20 21 22 23 24 25 26 27

000
ASUS45 KBOU 171110
RWRCO

WEATHER ROUNDUP FOR COLORADO
NATIONAL WEATHER SERVICE DENVER/BOULDER CO
400 AM MST WED JAN 17 2018

NOTE: "FAIR" INDICATES FEW OR NO CLOUDS BELOW 12000 FEET WITH NO
SIGNIFICANT WEATHER AND/OR OBSTRUCTIONS TO VISIBILITY.

COZ001>005-013-030-031-171200-
...NORTHWEST COLORADO...

CITY           SKY/WX    TMP DP  RH WIND       PRES   REMARKS
CRAIG          FAIR       3  -3  76 SW3       30.37S
HAYDEN         FAIR       9   0  67 E16       30.37F WCI  -8
MEEKER         FAIR      16   5  62 SE6       30.36S WCI   7
RABBIT EARS PA FAIR      16   3  57 W6        30.31S WCI   7
STEAMBOAT SPGS FAIR       1  -2  85 NW5       30.38S WCI  -8
WALDEN         FAIR       1  -8  66 SE5       30.34F WCI  -8
$$

COZ006>008-011-171200-
...WEST CENTRAL VALLEYS...

CITY           SKY/WX    TMP DP  RH WIND       PRES   REMARKS
GRAND JUNCTION FAIR      22  13  68 CALM      30.39R
MONTROSE       FAIR      16  10  77 S7        30.40F WCI   6
EAGLE          FAIR       4  -1  80 E6        30.47S WCI  -7
RIFLE          FAIR      17  10  74 SE3       30.41S
DELTA          FAIR      17  12  80 CALM      30.40S
NUCLA          FAIR      21  12  68 SE5       30.40S WCI  15
$$

COZ017>023-064>068-171200-
...SOUTHWEST COLORADO...

CITY           SKY/WX    TMP DP  RH WIND       PRES   REMARKS
DURANGO        FAIR      14  12  92 NE3       30.33F
CORTEZ         FAIR      15  12  88 CALM      30.35F
PAGOSA SPRINGS FAIR      15  13  93 CALM      30.32F
TELLURIDE      FAIR      17  -2  42 SE6       30.33S WCI   9
WOLF CREEK PAS FAIR      19 -18  17 NW6       30.35F WCI  11
$$

COZ009-010-012-014-032>034-037-058>063-171200-
...CENTRAL COLORADO...

CITY           SKY/WX    TMP DP  RH WIND       PRES   REMARKS
ASPEN          FAIR      10  -3  55 CALM      30.34F
BUENA VISTA    FAIR       6  -4  63 CALM      30.31F
COPPER MTN     NOT AVBL
BERTHOUD PASS  FAIR      10   0  61 NW29G36   30.27F WCI -11
COTTONWOOD PAS   N/A     30 -24   8 NW7       30.29S WCI  23
GUNNISON       FAIR      -1  -5  82 CALM      30.42S
KREMMLING      FAIR       0  -8  71 CALM      30.45F
LEADVILLE      FAIR       8 -16  32 NE7       30.30F WCI  -3
MONARCH PASS   FAIR      19 -24  13 NW14      30.41S WCI   6
SALIDA         FAIR      17   5  60 CALM      30.39S
SUNLIGHT       FAIR      19  -6  32 CALM      30.37F
WILKERSON PASS FAIR      25 -33   7 NW9G20    30.31S WCI  15
$$

COZ069>075-171200-
...SAN LUIS VALLEY/SANGRE DE CRISTO MOUNTAINS...

CITY           SKY/WX    TMP DP  RH WIND       PRES   REMARKS
ALAMOSA        FAIR       3  -1  83 N3        30.35F
DEL NORTE      FAIR       6   1  80 W8        30.34F WCI  -7
LA VETA PASS   FAIR      14  12  92 SW25        N/A  WCI  -5
SAGUACHE       FAIR       9   1  72 NW8       30.35F WCI  -4
$$

COZ035-036-038>040-171200-
...NORTHERN COLORADO FRONT RANGE...

CITY           SKY/WX    TMP DP  RH WIND       PRES   REMARKS
DENVER INTL AP FAIR      20   7  57 CALM      30.20F
DMNS CITY PARK NOT AVBL
AURORA         CLEAR     24   2  38 SE3       30.20S
FRONT RANGE AP FAIR      16   7  66 S5        30.20F WCI   9
ERIE MUNI ARPT FAIR       9   6  89 CALM      30.28S
BOULDER MUN AP FAIR      18  14  86 CALM      30.21R
CENTENNIAL     FAIR      20   3  48 S5        30.19S WCI  13
BROOMFIELD     FAIR      25  10  54 N3        30.20R
FORT COLLINS   FAIR       6   2  83 CALM      30.23S
LONGMONT       FAIR      10   5  82 CALM      30.25R
$$

COZ041-046-047-076>085-087-088-171200-
...PIKES PEAK/PALMER DIVIDE AND SOUTHERN FOOTHILLS...

CITY           SKY/WX    TMP DP  RH WIND       PRES   REMARKS
COLO. SPRINGS  FAIR      18   4  54 N9        30.19F WCI   7
A. F. ACADEMY  FAIR      13   0  56 N9        30.19F WCI   0
SCHRIEVER AFB  FAIR      21   3  45 CALM      30.20F
CHEYENNE MTN   FAIR      34  -3  21 CALM      30.14S
ELLICOTT         N/A    N/A N/A N/A CALM        N/A
FALCON         FAIR      16   1  50 NW7       30.20F WCI   6
FORT CARSON    FAIR      14   4  63 CALM      30.19F
LIMON          FAIR       1  -2  87 CALM      30.21F
MONUMENT HILL  FAIR      19   0  42 SW8       30.21S WCI   9
CANON CITY     FAIR      32  12  43 W21G28    30.20F WCI  20
WALSENBURG     FAIR      28  14  54 SW6       30.21F WCI  22
TRINIDAD       FAIR      18  12  77 W10       30.23S WCI   6
$$

COZ042>045-048>051-090-091-171200-
...NORTHEAST COLORADO...

CITY           SKY/WX    TMP DP  RH WIND       PRES   REMARKS
GREELEY ARPT   FAIR       3  -1  83 CALM      30.25S
AKRON          FAIR      15   7  70 W13       30.22S WCI   1
BURLINGTON     FAIR      12   1  61 S13       30.25F WCI  -3
WRAY           FAIR       5   0  78 W3        30.27F
YUMA           FAIR       5   1  85 W10       30.23F WCI -10
STERLING       FAIR       3   0  85 SW5       30.25F WCI  -6
HOLYOKE        FAIR       5  -2  72 W9        30.26F WCI  -9
FORT MORGAN    FAIR       7  -2  66 W5        30.24F WCI  -2
$$

COZ086-089-092>099-171200-
...SOUTHEAST COLORADO...

CITY           SKY/WX    TMP DP  RH WIND       PRES   REMARKS
PUEBLO         FAIR       7   2  80 CALM      30.25F
LA JUNTA       FAIR      11   2  67 W5        30.28F WCI   3
LAMAR          FAIR       0  -7  72 SW3       30.30F
SPRINGFIELD      N/A      8   5  87 NW10      30.25F WCI  -6
$$




USA.gov is the U.S. government's official web portal to all federal, state and local government web resources and services.